Location: Rounton
(54.4000°N, 1.3500°W)
Time: 02:02:05
(UTC+00:00)

SR - Pass Details

Date: 07 December 2021
Orbit: 582 x 872 km, 66.7° (Epoch: 26 January)

Event Time Altitude Azimuth Distance (km) Brightness Sun altitude
Exits shadow 04:06:53 14° 42° (NE) 1,652 ? -34.1°
Drops below altitude 10° 04:08:05 10° 56° (ENE) 1,930 ? -33.9°
Sets 04:11:00 0° 76° (ENE) 2,858 ? -33.5°
